Lid_Strength_Index
-1 -2 -2 -2 -3 -1 -1 -1 -1 -1 -1 -1 -1 -1 -1 -1 -1 -1 -1 -2 -1 -1 -1 -1 -1 -1 -1 -2 -2 -2 -2 -2 -2 -2 -2 -2 -2 -2 -2 -2 -1 -1 -1
-1 -1 -1 -1 -1 -2 -2 -1 -1 -1 -1 -1 -1 -1 -1 -1 -2 -2 -1 -2 -2 -2 -2 -2 -2 -2 -1 -2 -2 -2 -2 -2 -2 -2 -2 -2 -2 -2 -2 -2 -2 -1 -1
-2 -2 -1 -0 -1 -2 -2 -2 -2 -2 -1 -1 -1 -1 -1 -1 -1 -1 -2 -1 -2 -3 -3 -2 -3 -3 -1 -1 -2 -2 -2 -2 -2 -2 -2 -2 -2 -2 -2 -2 -2 -2 -1
-2 -2 -1 -1 -1 -2 -1 -1 -1 -0 -0 -0 -0 -1 -1 -1 -1 -1 -1 -2 -2 -1 -2 -2 -2 -3 -2 -1 -1 -1 -2 -2 -2 -2 -2 -2 -2 -2 -2 -2 -2 -2 -1
-2 -2 -2 -1 -2 -1 -1 -1 -1 -1 -0 -0 -0 -0 -1 -1 -1 -1 -1 -1 -1 -1 -1 -1 -2 -1 -1 -1 -1 -2 -2 -3 -3 -2 -2 -2 -2 -2 -2 -2 -2 -2 -1
-2 -2 -1 -1 -1 -0 -1 -0 -1 -1 -1 -0 0 0 -0 -1 -1 -1 -1 -1 -1 -1 -1 -2 -2 -1 -2 -3 -2 -2 -2 -2 -2 -2 -2 -2 -2 -1 -1 -2 -2 -2 -1
-2 -2 -1 -1 -1 -0 -0 -1 -0 -0 -0 -1 0 1 0 -1 -0 -1 -1 -1 -1 -1 -1 -1 -1 -1 -1 -2 -3 -3 -2 -1 -2 -2 -2 -1 -1 -1 -1 -1 -1 -2 -1
-2 -2 -2 -1 -0 -0 -1 -1 -1 1 0 -0 1 1 3 2 0 -0 -1 -1 -1 -1 -1 -1 -1 -2 -2 -2 -2 -1 -2 -2 -1 -2 -2 -1 -1 -1 -1 -1 -1 -2 -1
-2 -2 -2 -1 -1 -1 -0 -1 -1 -1 2 -0 -0 1 4 5 2 1 0 -0 -1 -1 -1 -1 -1 -1 -2 -1 -2 -1 -1 -2 -1 -1 -1 -1 -1 -1 -1 -1 -1 -1 -1
-2 -2 -2 -1 -2 -1 0 -1 -1 -0 0 2 0 -0 -0 1 3 5 2 0 -0 -0 -1 -1 -1 -1 -2 -1 -2 -1 -1 -1 -1 -1 -1 -1 -1 -1 -1 -1 -2 -1 -1
-2 -1 -2 -2 -1 -1 -1 -1 -1 -1 -0 0 1 1 0 1 0 2 4 3 0 -0 -1 -1 -1 -1 -2 -1 -1 -1 -1 -0 -0 -1 -1 -1 -1 -1 -1 -2 -2 -2 -1
-0 -2 -1 -2 -2 -2 -1 -1 -1 -1 -0 -0 0 0 1 2 2 2 3 2 2 1 -1 -1 -1 -1 -1 -1 -1 0 1 1 1 1 0 -1 -1 -1 -1 -1 -1 -1 -1
0 -0 -1 -1 -1 -2 -2 -2 -1 -1 -1 -0 -0 0 -0 0 0 1 2 2 2 1 1 -0 -1 -2 -2 -2 -1 -0 3 2 2 2 2 1 0 -0 -0 -1 -1 -1 -1
-1 -1 -1 -1 -1 -1 -1 -2 -1 -0 -1 -0 -0 -0 0 -0 -0 -0 1 2 3 3 2 2 -0 -1 -2 -1 -2 -1 2 2 3 3 3 3 3 2 2 1 1 1 1
-0 -1 -1 -1 -1 -1 -1 -1 -0 -1 -1 -1 -1 -1 0 -0 -0 -0 0 1 2 4 3 2 1 -1 -1 -1 -1 -0 2 4 4 4 4 4 4 4 4 4 4 3 3
-1 -0 -0 -1 -1 -1 -1 -1 -1 -1 -1 -0 -0 -1 -1 -0 -0 -0 -0 0 0 2 3 1 1 -0 -1 -1 -1 -0 2 3 4 4 5 5 5 5 4 4 4 3 3
-1 -1 -1 -1 -1 -1 -1 -1 -1 -0 0 -1 -1 -0 -1 -1 0 0 -0 -0 0 1 2 1 0 -0 -1 -1 -1 -1 0 2 5 5 5 5 5 5 5 4 4 3 3
-1 -1 -1 -1 -1 -1 -1 -0 -0 -0 0 0 0 -0 -0 -0 -0 -0 0 -0 0 -0 1 2 0 0 -0 -1 -1 -1 -1 1 5 5 4 5 5 5 5 5 6 6 6
-0 -1 -1 -0 -0 -0 -1 -1 -0 -0 -0 -0 -0 -0 -0 -0 0 0 0 0 1 1 0 1 2 0 1 -0 -0 -1 -0 1 2 4 4 4 4 5 6 6 7 7 8
-0 -0 -0 -0 -0 -0 -0 -0 -0 -0 -0 -0 -0 -0 -0 0 -0 -0 0 0 0 1 0 1 2 1 1 -1 0 1 1 -0 1 1 1 3 5 5 6 6 7 7 8
-0 -1 -0 -1 -1 -0 -0 -0 -0 -0 -0 0 -0 -0 -0 -0 2 1 -0 0 -0 0 1 2 2 2 2 1 2 0 1 1 0 -1 0 4 4 4 6 7 7 8 8
-0 -0 -0 -0 -0 0 2 1 -0 -0 -0 0 0 -0 -1 1 1 3 3 3 1 1 1 2 2 2 1 2 1 1 1 1 2 0 0 1 2 5 7 9 9 9 9
-0 -0 -0 -0 0 -0 4 3 2 -0 -0 0 -0 0 0 -0 0 -0 4 4 4 4 3 0 1 1 1 0 0 1 1 1 1 2 1 2 1 3 6 9 9 9 9
0 1 0 -0 -0 -0 5 5 5 -0 -0 -0 -0 -0 -0 -0 -0 -0 0 0 1 3 3 1 2 3 -0 -0 -1 -1 -0 -0 1 3 1 3 4 4 4 7 9 9 9
0 0 1 1 0 0 7 7 4 -0 0 0 -0 -0 1 -0 4 4 0 1 3 5 7 7 7 7 7 6 4 1 1 2 2 4 5 4 6 6 3 5 7 9 9
1 1 1 0 5 2 8 8 4 0 1 1 0 0 8 7 7 6 0 1 4 6 6 6 5 6 5 5 6 5 5 5 5 5 7 5 7 5 6 2 4 7 8